Home   Weather   Rygge   Past weeks

Flag for Norway Past Weather in Rygge, Norway — Yesterday and Last 2 Weeks

Now
63 °F

Partly sunny.


Feels Like: 63 °F
Forecast: 49 / 66 °F
Wind: 3 mph from West

Location: Rygge

Current Time: May 25, 2017 at 12:54:02 pm

Latest Report: May 25, 2017 at 12:00 pm


Visibility: 28 mi

Pressure: 30.03 "Hg

Humidity: 44%

Dew Point: 41 °F

Location of RyggeLocation

Past Weather in Rygge — Graph

°F

Rygge Temperature Yesterday

Maximum temperature yesterday: 64 °F (at 12:00 pm)
Minimum temperature yesterday: 42 °F (at 5:00 am)
Average temperature yesterday: 56 °F

High & Low Weather Summary for the Past Weeks

 TemperatureHumidityPressure
High71 °F (May 20, 4:00 pm)98% (May 14, 7:00 pm)30.38 "Hg (May 14, 7:00 pm)
Low35 °F (May 13, 5:00 am)41% (May 23, 7:00 pm)29.68 "Hg (May 11, 5:00 am)
Average51 °F81%30.00 "Hg
* Reported May 10 11:00 am — May 25 11:00 am, Rygge. Weather by CustomWeather, © 2017

Note: Actual official high and low records may vary slightly from our data, if they occured in-between our weather recording intervals... More about our weather records

Advertising

Rygge Weather History for the Previous 24 Hours

Scroll right to see more
 ConditionsComfort  
Time TempWeatherWind HumidityBarometerVisibility
11:00 am
Thu, May 25
63 °FOvercast.5 mph41%30.03 "Hg25 mi
10:00 am62 °FScattered clouds.2 mph44%30.04 "Hg25 mi
9:00 am60 °FSunny.3 mph46%30.04 "Hg25 mi
8:00 am58 °FSunny.5 mph52%30.04 "Hg25 mi
7:00 am56 °FSunny.5 mph56%30.04 "Hg28 mi
6:00 am54 °FPassing clouds.5 mph60%30.03 "Hg31 mi
5:00 am52 °FPassing clouds.2 mph62%30.01 "Hg31 mi
4:00 am53 °FPassing clouds.5 mph60%30.01 "Hg31 mi
3:00 am54 °FPassing clouds.5 mph56%29.99 "Hg31 mi
2:00 am54 °FClear.5 mph55%29.98 "Hg31 mi
1:00 am55 °FClear.5 mph55%29.96 "Hg31 mi
12:00 am56 °FClear.3 mph54%29.96 "Hg31 mi
11:00 pm
Wed, May 24
55 °FClear.3 mph77%29.95 "Hg22 mi
10:00 pm57 °FSunny.5 mph78%29.94 "Hg31 mi
9:00 pm58 °FPassing clouds.5 mph73%29.93 "Hg28 mi
8:00 pm60 °FSunny.6 mph64%29.93 "Hg25 mi
7:00 pm60 °FSunny.7 mph66%29.93 "Hg25 mi
6:00 pm60 °FSunny.8 mph66%29.94 "Hg25 mi
5:00 pm61 °FCool.8 mph65%29.94 "Hg28 mi
4:00 pm62 °FCool.8 mph65%29.95 "Hg25 mi
3:00 pm62 °FSunny.8 mph61%29.95 "Hg25 mi
2:00 pm62 °FSunny.7 mph64%29.95 "Hg22 mi
1:00 pm63 °FSunny.6 mph54%29.95 "Hg25 mi
12:00 pm64 °FMild.6 mph55%29.95 "Hg22 mi
Weather by CustomWeather, © 2017

See weather overviewHow to use our weather pages